Temp
34 33 32 32 32 31 30 29 29 31 32 33 33 33 33 33 34 33 34 34 34 34 35 35 35 37 35 36 38 38 37 37 33 36 37 36 34 35 36 35 36 38 39
33 32 33 32 31 30 28 28 29 28 30 32 32 32 33 33 34 33 32 33 33 33 33 34 34 36 35 35 35 35 36 37 33 31 33 34 34 33 33 33 33 33 34
32 32 31 30 26 20 18 22 26 25 26 30 33 32 32 32 32 33 33 33 33 33 34 33 33 34 33 34 34 35 35 36 35 33 33 35 36 34 32 33 33 33 33
31 30 28 25 24 20 17 25 21 22 26 30 32 32 31 32 32 33 33 33 33 33 34 34 34 34 33 33 34 34 34 32 33 33 33 33 35 33 33 33 33 32 32
27 25 22 19 17 15 13 19 31 31 25 32 31 31 31 31 32 34 33 31 31 33 34 33 33 33 34 35 35 33 32 32 32 32 33 33 34 32 32 33 32 31 30
23 21 16 13 13 12 9 13 25 29 20 24 26 30 29 31 35 38 35 29 30 31 31 32 33 33 34 35 36 37 37 33 32 32 33 33 34 33 33 33 31 31 31
21 16 14 11 11 9 9 10 16 16 15 17 20 23 27 29 36 37 35 29 28 29 31 32 32 33 33 33 35 36 37 38 38 35 33 34 34 34 33 31 31 30 26
19 17 13 12 12 9 9 11 11 13 15 16 15 15 17 23 35 36 33 25 24 25 28 31 32 32 33 33 33 33 33 33 34 34 34 35 37 35 34 33 31 25 26
20 19 18 17 15 10 12 11 12 14 17 15 16 14 16 18 33 35 29 23 25 24 26 29 31 31 34 35 33 32 30 29 31 31 32 36 39 40 33 31 28 28 24
23 23 20 18 16 15 15 12 12 12 19 21 21 14 16 17 28 34 31 26 21 23 22 27 31 33 34 34 28 27 24 23 24 24 24 25 25 27 29 30 31 30 24
23 20 19 18 17 17 16 16 17 16 18 14 18 17 15 16 18 34 33 22 19 21 22 24 27 32 33 32 31 23 24 22 22 20 22 22 21 20 21 22 23 28 25
22 21 21 20 21 20 21 21 21 21 20 17 17 17 18 20 27 31 33 32 28 19 20 25 27 30 30 31 29 29 28 24 22 20 20 18 18 17 17 18 19 20 21
22 22 21 22 22 23 23 23 23 23 21 20 20 17 18 21 20 29 31 31 30 22 23 26 28 27 25 21 27 26 19 18 17 16 16 15 15 17 19 19 20 19 18
23 22 22 22 23 22 26 25 25 22 20 21 20 19 16 18 19 20 21 19 23 20 20 16 23 23 24 20 15 16 15 14 13 13 12 13 15 15 15 16 16 17 16
23 23 24 24 22 24 25 25 25 24 25 21 20 19 14 15 20 29 26 20 15 21 6 5 8 9 9 10 10 9 10 11 10 6 7 7 9 9 9 8 7 5 7
24 23 24 25 23 24 24 22 30 31 31 33 32 24 20 28 32 33 33 33 31 29 6 2 4 4 4 2 2 3 3 4 4 4 3 4 3 5 5 6 7 5 7
25 26 25 24 24 23 23 24 24 23 34 34 34 34 34 31 33 33 33 33 30 21 2 -0 2 2 3 1 -1 -1 1 -0 -4 0 0 0 1 1 1 1 4 3 1
24 23 25 24 25 24 24 25 25 24 24 22 28 32 33 33 33 33 32 24 10 9 0 0 1 1 -1 -1 -0 0 -2 -2 -2 -1 -2 -5 -5 -3 -2 -2 -2 -4 -6
22 24 24 23 24 24 24 25 25 24 24 19 13 22 25 32 33 32 32 9 8 5 2 2 0 -1 0 -2 -3 -5 -4 -3 -4 -5 -5 -3 -5 -5 -6 -7 -3 -3 -5
17 18 20 22 18 21 22 24 23 24 24 22 19 21 8 12 12 11 9 8 7 7 4 3 3 -1 -2 -2 -2 -3 -2 -1 -1 -3 -3 -5 -6 -5 -4 -4 -5 -4 -5
18 20 24 25 22 21 22 22 23 23 22 20 21 16 22 18 19 17 16 13 13 9 8 16 17 20 18 16 6 -1 -2 -1 -2 -4 -5 -6 -7 -2 -7 -4 -6 -8 -6
23 24 24 26 24 23 16 15 15 16 13 15 12 10 30 20 14 16 16 14 12 13 18 23 22 21 18 15 15 10 6 5 2 -0 -1 -3 -3 -5 -5 -1 -3 -6 -7
23 23 23 23 23 22 22 20 17 15 15 16 12 14 13 16 19 18 17 17 20 25 19 18 17 14 9 7 6 8 8 7 9 7 7 8 7 6 5 5 5 4 4
24 23 22 22 21 20 20 20 19 18 14 14 13 13 12 11 11 12 18 21 18 16 15 14 13 12 11 10 10 10 10 10 9 9 9 8 7 9 9 8 8 9 10
17 18 19 19 20 20 19 19 19 18 17 11 7 8 8 13 17 16 16 15 14 13 11 12 12 12 11 11 11 11 11 13 10 11 9 9 10 9 9 8 8 9 10
11 11 11 12 12 12 12 12 11 12 11 11 11 11 11 11 12 12 12 12 11 11 11 11 11 11 11 11 12 15 16 17 15 14 10 9 9 8 7 7 9 7 8
MSLP
1015.65 1016.06 1016.44 1016.70 1016.81 1016.85 1016.70 1016.60 1016.33 1016.03 1015.75 1015.41 1015.03 1014.60 1014.18 1013.76 1013.33 1012.97 1012.50 1012.03 1011.53 1011.03 1010.70 1010.35 1009.87 1009.64 1009.29 1009.09 1008.52 1008.33 1008.15 1007.92 1006.98 1006.58 1006.60 1006.49 1006.18 1005.67 1005.14 1005.03 1004.92 1004.34 1003.57
1015.39 1015.88 1016.20 1016.34 1016.61 1016.68 1016.65 1016.44 1016.14 1015.88 1015.51 1015.14 1014.79 1014.28 1013.78 1013.31 1012.80 1012.33 1011.84 1011.38 1010.88 1010.37 1009.93 1009.59 1009.12 1008.88 1008.60 1008.44 1008.24 1008.10 1007.78 1007.67 1007.45 1006.44 1006.49 1006.38 1005.99 1005.40 1005.19 1004.81 1004.50 1004.71 1004.06
1015.17 1015.61 1015.95 1016.28 1016.65 1016.74 1016.70 1016.41 1016.00 1015.58 1015.26 1014.88 1014.52 1013.97 1013.47 1012.97 1012.40 1011.85 1011.33 1010.74 1010.19 1009.63 1009.11 1008.80 1008.49 1008.31 1007.98 1007.89 1007.73 1007.48 1007.24 1007.10 1006.95 1006.48 1006.08 1005.97 1005.44 1005.10 1004.92 1004.79 1004.47 1004.68 1004.31
1014.98 1015.48 1015.96 1016.27 1016.46 1016.65 1016.49 1016.35 1015.90 1015.40 1015.15 1014.66 1014.34 1013.84 1013.29 1012.68 1012.03 1011.33 1010.70 1010.17 1009.65 1008.86 1008.26 1008.18 1007.93 1007.77 1007.54 1007.37 1007.03 1006.81 1006.73 1006.70 1006.54 1006.20 1005.78 1005.37 1004.98 1004.57 1004.39 1004.45 1004.37 1004.63 1004.34
1014.86 1015.40 1015.89 1016.02 1016.30 1016.47 1016.32 1016.41 1015.87 1015.19 1015.04 1014.55 1014.19 1013.71 1013.11 1012.52 1011.78 1010.90 1010.39 1010.07 1009.44 1008.60 1008.00 1007.59 1007.34 1007.01 1006.78 1006.63 1006.49 1006.26 1006.27 1006.22 1005.97 1005.61 1005.17 1004.62 1004.24 1004.26 1003.93 1003.83 1003.99 1004.35 1004.54
1014.60 1015.18 1015.80 1016.06 1016.37 1016.43 1016.40 1016.43 1015.88 1014.96 1014.90 1014.57 1014.30 1013.74 1013.27 1012.56 1011.66 1010.76 1010.22 1009.92 1009.36 1008.79 1008.23 1007.72 1007.02 1006.48 1006.04 1005.76 1005.66 1005.60 1005.52 1005.50 1005.39 1005.24 1004.76 1004.47 1003.88 1003.74 1003.51 1003.72 1003.98 1004.44 1004.78
1014.22 1014.79 1015.29 1015.82 1016.39 1016.65 1016.23 1016.29 1015.94 1015.04 1014.76 1014.61 1014.41 1013.90 1013.33 1012.58 1011.41 1010.56 1010.10 1009.80 1009.49 1009.00 1008.33 1007.66 1006.95 1006.31 1005.73 1005.25 1004.95 1004.90 1004.88 1004.88 1004.76 1004.62 1004.29 1003.84 1003.57 1003.46 1003.41 1003.59 1003.88 1004.38 1004.87
1013.86 1014.33 1014.78 1015.25 1015.86 1016.18 1016.29 1016.20 1015.91 1015.00 1014.76 1014.55 1014.27 1013.99 1013.56 1012.55 1011.40 1010.61 1010.20 1009.89 1009.65 1009.23 1008.70 1007.96 1007.10 1006.28 1005.65 1005.02 1004.61 1004.54 1004.56 1004.46 1004.46 1004.14 1003.75 1003.24 1003.03 1002.96 1003.07 1003.04 1003.52 1004.68 1005.46
1013.31 1013.71 1014.05 1014.53 1015.18 1015.51 1015.61 1015.67 1015.67 1015.35 1014.86 1014.54 1013.98 1013.90 1013.66 1012.87 1011.82 1010.96 1010.63 1010.35 1010.02 1009.55 1009.04 1008.37 1007.45 1006.61 1005.71 1004.99 1004.24 1004.25 1004.34 1004.51 1004.53 1004.21 1003.76 1002.85 1002.29 1002.37 1002.74 1003.10 1003.75 1004.36 1005.60
1012.27 1012.57 1013.11 1013.57 1014.29 1014.65 1014.65 1014.83 1014.80 1014.51 1014.43 1013.85 1013.83 1013.56 1013.24 1012.89 1012.13 1011.31 1010.89 1010.64 1010.30 1009.80 1009.31 1008.66 1007.80 1007.03 1006.30 1005.53 1005.22 1005.30 1005.49 1005.43 1005.01 1004.55 1004.27 1003.95 1003.87 1003.74 1003.40 1003.09 1003.39 1004.02 1005.13
1011.21 1011.88 1012.54 1012.75 1013.23 1013.71 1013.88 1013.79 1014.01 1014.27 1014.07 1014.14 1013.91 1013.51 1013.03 1012.52 1011.92 1011.22 1010.75 1010.64 1010.60 1010.21 1009.79 1009.16 1008.50 1007.66 1006.97 1006.51 1006.11 1005.98 1005.92 1006.08 1005.86 1005.54 1005.21 1004.89 1004.81 1004.76 1004.78 1004.61 1004.34 1004.48 1005.31
1010.69 1011.30 1011.73 1011.99 1012.32 1012.77 1013.09 1013.15 1013.19 1013.51 1013.68 1013.73 1013.77 1013.44 1012.88 1012.40 1011.94 1011.45 1010.87 1010.55 1010.43 1010.35 1009.92 1009.40 1008.98 1008.42 1007.93 1007.16 1006.89 1006.70 1006.59 1006.47 1006.26 1006.38 1006.40 1006.40 1006.36 1006.27 1006.16 1005.66 1005.40 1005.50 1005.76
1010.27 1010.50 1010.83 1011.22 1011.62 1011.89 1012.33 1012.44 1012.60 1012.84 1013.13 1013.19 1013.29 1013.39 1012.84 1012.31 1011.75 1011.35 1010.93 1010.60 1010.43 1010.36 1010.09 1009.71 1009.42 1009.01 1008.77 1008.55 1007.85 1007.42 1007.40 1007.35 1007.34 1007.43 1007.73 1007.82 1007.71 1007.47 1006.97 1006.69 1006.51 1006.57 1006.72
1009.52 1009.72 1010.02 1010.47 1010.88 1011.22 1011.48 1011.64 1011.85 1011.90 1012.12 1012.40 1012.54 1012.63 1012.38 1012.15 1011.81 1011.13 1010.90 1010.66 1010.59 1010.54 1010.47 1010.27 1010.03 1009.82 1009.43 1009.33 1008.98 1008.98 1008.55 1008.29 1008.46 1008.82 1008.74 1008.53 1008.32 1008.19 1007.95 1007.88 1007.81 1007.69 1007.85
1008.74 1009.06 1009.40 1009.64 1010.01 1010.36 1010.55 1010.62 1010.77 1010.77 1010.84 1011.06 1011.19 1011.40 1011.83 1011.76 1011.28 1010.81 1010.65 1010.69 1010.69 1010.58 1010.76 1010.99 1011.01 1010.85 1010.70 1010.52 1010.41 1010.16 1010.02 1009.74 1009.52 1009.54 1009.52 1009.80 1009.64 1009.27 1009.22 1009.09 1009.07 1009.09 1009.67
1008.25 1008.49 1008.62 1008.80 1009.16 1009.46 1009.74 1010.02 1009.95 1010.00 1010.14 1010.29 1010.47 1010.71 1010.84 1010.80 1010.68 1010.64 1010.47 1010.36 1010.44 1010.55 1011.19 1011.91 1012.28 1012.00 1011.97 1011.77 1011.64 1011.34 1011.16 1010.97 1011.16 1011.16 1010.93 1010.77 1010.71 1010.57 1010.64 1010.60 1010.57 1010.81 1011.37
1007.32 1007.52 1007.79 1008.03 1008.36 1008.68 1009.02 1009.21 1009.40 1009.36 1009.35 1009.67 1009.83 1009.94 1009.97 1010.11 1010.12 1010.14 1010.21 1010.15 1010.43 1010.84 1011.47 1012.32 1012.69 1012.56 1012.42 1012.27 1012.11 1011.99 1012.07 1012.07 1011.75 1011.70 1011.75 1011.96 1011.73 1011.60 1011.44 1011.63 1011.83 1012.07 1012.85
1006.62 1006.75 1006.92 1007.08 1007.32 1007.62 1007.86 1008.05 1008.31 1008.63 1008.97 1009.16 1009.24 1009.32 1009.46 1009.62 1009.73 1009.92 1010.12 1010.58 1010.92 1011.46 1011.94 1012.52 1012.77 1012.70 1012.60 1012.51 1012.47 1012.52 1012.49 1012.51 1012.22 1012.10 1012.18 1012.21 1012.30 1012.27 1012.49 1012.70 1012.57 1013.08 1013.67
1006.20 1005.96 1006.03 1006.27 1006.58 1006.80 1007.08 1007.32 1007.53 1007.89 1008.17 1008.64 1009.15 1009.08 1009.01 1009.26 1009.47 1009.70 1009.85 1010.87 1011.17 1011.51 1011.75 1012.02 1012.19 1012.39 1012.43 1012.31 1012.25 1012.30 1012.45 1012.36 1012.40 1012.60 1012.70 1012.75 1012.76 1012.88 1013.16 1013.17 1013.20 1013.30 1013.57
1005.56 1005.42 1005.40 1005.74 1006.00 1006.39 1006.57 1006.68 1006.94 1007.25 1007.71 1008.05 1008.41 1008.50 1009.35 1009.61 1009.64 1009.76 1010.08 1010.59 1010.92 1011.10 1011.36 1011.63 1012.07 1012.21 1012.40 1012.45 1012.34 1012.36 1012.66 1012.62 1012.68 1012.82 1012.80 1012.86 1013.18 1013.22 1013.01 1013.24 1013.26 1013.61 1013.83
1004.91 1004.94 1004.92 1005.32 1005.52 1005.82 1006.12 1006.30 1006.41 1006.64 1007.08 1007.46 1007.53 1007.81 1008.27 1008.71 1009.03 1009.40 1009.71 1010.07 1010.33 1010.55 1010.79 1010.81 1010.88 1010.80 1011.06 1011.41 1011.86 1012.13 1012.41 1012.42 1012.39 1012.57 1012.88 1012.97 1012.98 1013.30 1013.48 1013.40 1013.44 1013.48 1013.51
1004.70 1004.62 1004.71 1004.83 1004.96 1005.46 1005.70 1005.83 1006.18 1006.45 1006.83 1007.21 1007.29 1007.52 1007.69 1008.24 1008.62 1008.94 1009.23 1009.50 1009.67 1009.79 1009.94 1010.12 1010.28 1010.48 1010.59 1010.93 1011.15 1011.55 1011.88 1012.10 1011.94 1011.91 1012.14 1012.26 1012.37 1012.85 1013.10 1013.19 1013.22 1013.41 1013.62
1004.69 1004.66 1004.73 1004.76 1004.90 1005.24 1005.39 1005.67 1005.87 1006.05 1006.43 1006.70 1007.05 1007.35 1007.62 1007.84 1008.25 1008.57 1008.80 1008.87 1008.90 1009.08 1009.36 1009.62 1009.98 1010.47 1010.62 1010.99 1011.09 1011.13 1011.37 1011.41 1011.18 1011.35 1011.49 1011.62 1011.90 1012.13 1012.23 1012.47 1012.66 1013.07 1013.17
1004.96 1004.90 1004.90 1005.04 1005.31 1005.44 1005.52 1005.67 1005.81 1006.07 1006.40 1006.73 1007.06 1007.29 1007.52 1007.78 1008.13 1008.48 1008.50 1008.65 1008.91 1009.39 1009.75 1009.95 1010.23 1010.60 1010.91 1011.05 1011.13 1011.06 1010.95 1010.85 1010.85 1010.98 1010.99 1011.12 1011.32 1011.48 1011.66 1011.91 1012.05 1012.34 1012.60
1006.54 1006.40 1006.32 1006.28 1006.14 1006.06 1006.04 1006.13 1006.25 1006.57 1006.95 1007.31 1007.62 1007.80 1007.98 1008.19 1008.51 1008.67 1008.96 1009.25 1009.62 1009.97 1010.26 1010.47 1010.72 1010.84 1011.03 1011.11 1011.06 1010.95 1010.84 1010.81 1010.80 1010.81 1010.88 1011.02 1011.13 1011.22 1011.37 1011.56 1011.76 1011.97 1012.09
1008.64 1008.42 1008.25 1008.00 1007.86 1007.82 1007.78 1007.89 1008.08 1008.26 1008.47 1008.64 1008.83 1009.01 1009.16 1009.39 1009.63 1009.79 1009.93 1010.09 1010.34 1010.59 1010.80 1010.97 1011.09 1011.21 1011.28 1011.22 1011.13 1010.93 1010.77 1010.53 1010.42 1010.57 1010.79 1010.90 1010.99 1011.06 1011.13 1011.30 1011.52 1011.73 1011.89
Wind_Speed
6 4 4 3 1 2 3 4 4 5 6 7 8 8 9 9 9 9 10 11 12 12 12 12 14 13 9 9 9 8 8 10 13 6 4 7 5 9 8 2 3 5 4
6 5 4 2 0 2 4 5 5 5 6 6 8 9 9 9 10 10 11 10 11 12 12 12 13 9 11 10 9 10 11 8 9 14 8 6 6 3 4 3 1 3 3
6 6 4 3 1 2 4 5 5 5 6 6 7 8 9 9 10 10 10 11 12 12 13 12 12 10 10 8 9 10 7 6 7 7 9 9 10 4 2 2 2 1 1
6 6 5 4 3 3 3 5 4 3 5 4 6 8 8 9 10 10 10 10 11 11 10 8 9 9 11 10 9 8 6 7 7 8 10 9 7 3 2 2 2 0 2
6 5 6 4 2 2 2 5 5 2 4 4 5 8 8 8 8 8 7 8 9 10 8 6 7 10 15 13 7 6 6 7 7 9 9 7 6 3 3 2 1 1 2
7 7 5 3 2 1 2 4 6 2 4 3 5 7 8 7 17 15 11 5 9 8 8 9 8 9 12 17 18 20 13 7 10 9 7 7 6 2 1 1 2 2 2
7 6 6 4 4 4 3 3 6 3 2 3 5 5 7 8 17 16 13 5 6 8 8 8 9 6 8 9 12 16 16 17 18 11 13 11 10 4 3 2 3 2 2
7 6 5 6 5 4 3 4 5 3 3 3 3 5 5 6 15 16 15 6 5 6 9 10 10 10 9 9 8 6 6 5 6 8 10 11 10 5 5 3 4 6 4
9 8 7 7 6 5 5 4 4 3 3 2 2 4 4 6 14 15 10 5 6 6 7 9 10 10 18 17 4 4 2 3 5 13 17 15 8 11 8 6 4 6 2
11 11 8 8 7 7 6 5 4 3 4 2 3 2 4 5 11 12 9 5 4 5 5 8 16 14 18 15 6 4 4 5 4 6 7 10 13 11 14 5 6 5 4
7 6 7 7 8 7 5 5 3 3 1 2 3 4 3 3 6 8 8 1 2 4 4 6 6 17 16 15 12 4 3 2 6 5 5 5 6 8 7 7 7 4 3
7 7 8 8 7 5 6 3 3 3 3 2 2 3 3 3 6 7 8 8 6 2 3 4 6 13 14 14 9 11 9 6 4 5 5 7 6 6 6 7 8 9 8
7 8 8 7 7 6 6 6 4 4 3 3 3 2 3 3 3 5 6 6 7 2 2 6 9 12 11 9 15 13 8 4 4 5 5 4 3 4 5 4 7 9 12
9 8 6 8 7 6 6 5 5 5 5 4 4 4 3 3 3 3 2 2 3 4 4 4 7 9 12 9 4 8 5 4 4 3 3 2 3 3 4 4 3 4 5
7 7 8 7 8 7 8 7 7 5 5 5 5 4 4 3 3 2 2 2 2 2 2 3 4 4 4 5 4 5 5 5 5 3 3 3 4 3 3 4 2 3 4
8 7 8 8 7 7 7 5 12 12 13 13 8 6 3 7 7 4 5 4 5 0 4 3 2 2 2 2 3 3 3 3 3 3 4 3 3 3 3 4 5 4 5
11 8 7 8 7 8 7 7 8 5 13 15 14 12 11 7 8 7 5 4 4 2 3 0 0 1 1 2 1 1 1 2 2 2 2 3 2 3 3 3 3 3 3
9 9 7 7 8 7 8 9 7 7 8 6 11 12 13 12 9 7 4 4 3 4 2 1 2 2 1 1 1 1 2 3 2 2 2 2 2 2 2 3 2 3 2
7 6 6 5 7 7 7 7 7 7 7 4 1 5 8 14 11 8 5 3 3 2 3 3 3 3 3 2 3 2 2 2 2 1 1 1 2 2 2 2 3 3 4
5 6 5 4 4 5 6 8 7 8 7 7 6 6 2 3 1 3 2 2 2 2 2 2 2 2 2 2 1 1 0 0 0 0 1 1 1 1 3 3 2 3 1
3 4 6 5 5 5 6 7 7 6 7 6 7 5 11 5 5 4 4 4 4 3 4 4 3 3 4 4 3 3 2 2 2 2 1 1 2 1 0 1 2 2 4
3 3 3 5 4 5 4 3 4 4 3 4 3 3 14 5 3 4 4 4 4 4 4 3 2 2 2 3 2 2 3 3 2 2 3 3 3 3 2 1 2 2 1
1 1 2 1 2 4 4 3 4 4 5 4 3 3 3 3 5 4 4 4 4 4 3 3 3 2 2 2 1 2 3 3 2 3 3 3 3 3 3 3 3 3 3
2 1 0 1 1 1 2 2 2 2 2 2 2 2 2 2 2 2 2 0 4 4 4 4 3 4 2 1 1 1 1 1 1 2 3 3 3 4 3 2 3 4 4
9 9 8 7 5 4 3 3 3 2 3 3 3 3 3 4 5 5 5 5 5 5 5 4 3 4 4 3 3 2 2 2 1 2 1 2 3 4 3 3 3 3 3
10 10 9 8 9 9 8 8 8 8 8 7 7 7 7 7 6 6 5 5 5 5 5 4 4 6 5 3 3 4 5 4 4 3 2 1 1 1 2 2 4 2 3
Wind_Direction
174 182 191 208 265 310 340 324 298 296 304 303 306 303 300 295 289 281 276 276 273 273 268 266 268 268 265 272 251 251 257 255 265 276 304 313 288 275 288 250 296 312 325
175 177 186 155 351 350 333 307 302 297 297 299 300 301 299 301 297 288 283 281 278 276 275 271 269 268 264 260 258 263 255 261 281 289 295 288 277 266 275 278 80 320 3
170 175 174 168 198 288 293 298 301 299 297 297 311 318 312 304 300 295 287 283 279 273 270 268 271 272 266 267 266 263 254 258 260 272 286 285 275 266 265 248 74 284 28
172 177 179 185 219 259 287 289 297 304 304 318 325 315 312 310 300 294 293 300 302 282 269 259 264 270 275 268 266 252 243 253 257 272 277 274 274 250 204 235 209 349 31
173 172 198 181 228 281 332 300 285 330 304 312 312 321 320 318 311 328 322 325 319 317 307 258 254 255 256 255 263 248 244 258 260 272 277 256 261 237 209 199 152 145 25
177 191 192 164 209 256 289 288 285 283 307 307 299 329 318 311 323 350 351 323 343 331 330 322 287 268 258 257 261 260 250 255 263 270 277 283 284 254 173 227 157 189 178
182 187 190 166 212 225 238 277 268 253 305 301 292 307 310 306 344 359 0 349 346 339 337 337 328 309 289 267 260 261 264 264 264 267 269 265 272 216 203 200 187 87 92
192 192 189 170 212 216 236 240 267 260 230 244 290 294 303 301 348 5 5 346 340 336 345 342 340 336 324 306 257 245 246 248 282 268 260 267 265 244 200 210 123 108 89
201 202 193 177 204 197 220 238 255 265 278 285 269 313 322 318 344 5 13 344 348 343 340 340 348 354 352 352 291 232 103 39 5 21 26 24 276 250 159 130 141 142 110
203 205 187 178 195 206 201 208 230 206 241 252 291 283 298 316 336 5 19 343 338 342 324 344 358 15 14 21 29 27 30 3 14 20 20 23 28 35 36 26 152 142 122
187 174 187 184 191 209 198 188 207 239 222 300 283 299 310 297 311 12 18 343 318 326 336 353 347 10 19 26 39 37 51 19 5 12 29 35 35 33 29 28 40 83 88
175 187 194 195 194 193 207 208 193 195 214 251 287 307 300 309 331 352 17 21 11 346 340 342 346 13 13 32 33 35 45 43 45 42 33 28 25 27 27 40 53 68 53
180 196 197 191 199 192 200 205 190 193 200 214 202 249 277 295 296 330 357 11 18 16 330 8 19 27 29 16 35 44 32 29 36 55 43 39 20 359 6 36 56 72 63
198 202 192 193 203 200 212 199 203 191 188 205 206 215 234 273 289 304 316 341 355 33 28 6 37 48 49 40 14 17 19 40 50 30 26 41 9 19 39 10 38 43 61
204 202 203 202 200 206 212 205 206 219 197 193 212 188 178 243 248 294 335 325 242 271 44 22 9 10 12 16 10 23 15 9 42 26 67 37 17 17 17 357 36 23 72
209 208 208 203 201 205 205 222 234 227 222 228 218 188 228 235 261 279 314 339 355 226 50 39 353 1 35 1 9 2 4 26 21 12 22 29 34 44 23 10 29 46 85
219 217 206 202 198 198 196 200 214 240 232 230 229 228 227 219 235 244 280 301 21 59 85 17 219 321 310 342 0 39 1 324 322 67 76 17 33 30 55 59 57 59 48
219 218 202 202 204 197 199 204 202 195 207 220 245 227 230 233 233 237 257 69 17 16 75 176 233 230 242 239 282 335 336 342 23 53 70 66 44 97 55 54 55 107 85
217 214 204 196 202 202 198 201 203 202 207 201 203 240 228 225 226 230 212 150 184 207 200 206 205 211 227 205 204 196 185 184 169 140 98 82 132 109 91 106 111 87 112
224 214 188 192 174 193 197 202 203 209 212 209 204 211 144 91 185 220 196 159 185 221 210 215 210 211 228 232 240 228 112 290 186 298 255 173 150 106 143 154 156 130 101
214 205 204 196 187 195 202 210 214 208 211 207 221 176 189 180 202 195 201 204 207 203 193 199 198 197 178 186 185 181 199 241 229 218 197 225 149 140 211 130 140 130 135
231 205 198 211 185 195 203 185 182 187 187 192 203 197 212 198 184 193 204 210 207 204 205 182 199 195 186 194 191 226 223 228 254 214 207 196 178 168 151 141 136 133 147
331 205 190 185 191 200 196 199 193 187 194 198 177 184 194 193 191 196 203 209 199 189 175 144 132 128 68 60 62 167 191 232 220 189 207 207 212 201 179 182 168 177 181
346 16 51 59 207 213 204 210 212 202 162 174 182 191 190 177 179 198 232 170 78 68 60 71 78 101 94 75 62 54 175 197 199 231 207 184 198 199 189 183 178 195 198
29 32 34 29 30 28 42 37 41 58 58 57 54 60 62 76 69 61 58 69 75 77 72 73 75 85 77 64 41 9 327 10 197 213 203 191 210 205 195 187 179 183 180
36 39 38 37 38 38 42 45 44 45 48 47 49 49 51 54 53 53 54 64 72 72 69 57 56 56 46 30 354 10 351 321 241 190 166 178 198 219 194 200 195 173 170